Torna al catalogo

TITAN 3C TRANSTAGE DEB

LostHEO
NORAD 28804·DEBRIS·🇺🇸 United States

Lanciato Dec 21, 1965 da Cape Canaveral Space Force Station

Loading…

Prossimi Passaggi (prossime 24 ore)

TLE

ObsoletoSource: Space-Track

Epoca: Jan 5, 2026, 14:00 UTC

1 28804U 65108BW  26005.58374318 -.00000100  00000-0  00000-0 0  9996
2 28804  27.4680  90.0965 6604344 189.8618 349.5966  2.64743849118052

Traccia TITAN 3C TRANSTAGE DEB in tempo reale con AllMySat

Download on the App Store